Date String (YYYY-MM-DD hh:mm:ss) UTC,Instrument flags,absolute air pressure of the measurement (hPa),sample flow rate (lpm),inlet stack bypass flow (lpm),air temperature of the measurement (°C),ambient temperature measured by the external sensor (°C),aerosol sample conditioner tube jacket temperature (°C),OPC LED temperature (°C),internal box temperature (°C),relative humidity of the measurement (%),span deviation,mass concentration of particles derived from Lorenz-Mie calculation of OPC scattering (μg/m³),mass concentration of particles derived from Lorenz-Mie calculation of OPC scattering (μg/m³),mass concentration of particles derived from Lorenz-Mie calculation of OPC scattering (μg/m³)
DateTimeUTC,F1_M11,P_M11,Q1_M11,Q2_M11,T1_M11,T2_M11,T3_M11,T4_M11,T5_M11,U1_M11,ZSPAN_M11,X2_M11,X0_M11,X1_M11
2023-12-19 12:00:00,SystemResetWarning,0824.9,5.00,000.00,022.7,021.8,000.0,031.0,024.0,5.9,0000.0,0001.15,0001.64,0000.97
2023-12-19 12:01:00,SystemResetWarning,0824.9,5.00,000.00,022.7,021.8,000.0,031.0,024.1,6.2,0000.0,0001.09,0001.47,0000.96
2023-12-19 12:02:00,SystemResetWarning,0824.9,5.00,000.00,022.7,021.8,000.0,031.0,024.0,6.2,0000.0,0001.08,0001.51,0000.95
2023-12-19 12:03:00,SystemResetWarning,0824.9,5.00,000.00,022.7,021.8,000.0,031.0,024.1,6.1,0000.0,0001.10,0001.61,0000.95
2023-12-19 12:04:00,SystemResetWarning,0825.0,5.01,000.00,022.7,021.8,000.0,031.0,024.1,6.1,0000.0,0001.10,0001.59,0000.95
2023-12-19 12:05:00,SystemResetWarning,0825.0,5.01,000.00,022.8,021.9,000.0,031.0,024.1,6.2,0000.0,0001.12,0001.63,0000.97
2023-12-19 12:06:00,SystemResetWarning,0825.0,5.00,000.00,022.8,021.9,000.0,031.0,024.1,6.1,0000.0,0001.12,0001.66,0000.97
2023-12-19 12:07:00,SystemResetWarning,0824.9,4.99,000.00,022.8,021.9,000.0,031.0,024.1,6.0,0000.0,0001.09,0001.62,0000.96
2023-12-19 12:08:00,SystemResetWarning,0824.9,4.99,000.00,022.8,021.9,000.0,031.0,024.1,5.9,0000.0,0001.08,0001.57,0000.96
2023-12-19 12:09:00,SystemResetWarning,0824.9,4.99,000.00,022.8,021.9,000.0,031.0,024.1,6.1,0000.0,0001.10,0001.60,0000.96
2023-12-19 12:10:00,SystemResetWarning,0825.0,5.01,000.00,022.8,021.9,000.0,031.0,024.1,6.0,0000.0,0001.12,0001.63,0000.96
2023-12-19 12:11:00,SystemResetWarning,0825.0,5.00,000.00,022.8,021.9,000.0,031.0,024.1,5.8,0000.0,0001.12,0001.70,0000.96
2023-12-19 12:12:00,SystemResetWarning,0825.0,5.01,000.00,022.8,021.9,000.0,031.0,024.1,5.8,0000.0,0001.14,0002.75,0000.96
2023-12-19 12:13:00,SystemResetWarning,0825.0,5.01,000.00,022.8,021.9,000.0,031.0,024.1,5.9,0000.0,0001.17,0003.07,0000.97
2023-12-19 12:14:00,SystemResetWarning,0825.0,5.00,000.00,022.8,021.8,000.0,031.0,024.0,6.1,0000.0,0001.19,0003.03,0000.98
2023-12-19 12:15:00,SystemResetWarning,0825.0,5.01,000.00,022.8,021.8,000.0,031.0,024.1,6.1,0000.0,0001.18,0003.05,0000.98
2023-12-19 12:16:00,SystemResetWarning,0825.1,5.00,000.00,022.8,021.8,000.0,031.0,024.1,6.2,0000.0,0001.19,0003.61,0000.97
2023-12-19 12:17:00,SystemResetWarning,0825.0,4.99,000.00,022.8,021.8,000.0,031.0,024.1,6.2,0000.0,0001.18,0003.60,0000.97
2023-12-19 12:18:00,SystemResetWarning,0825.1,4.99,000.00,022.8,021.8,000.0,031.0,024.1,6.2,0000.0,0001.20,0003.54,0000.98
2023-12-19 12:19:00,SystemResetWarning,0825.0,4.99,000.00,022.8,021.8,000.0,031.0,024.1,6.2,0000.0,0001.24,0003.68,0000.98
2023-12-19 12:20:00,SystemResetWarning,0825.1,5.01,000.00,022.8,021.8,000.0,031.0,024.1,6.1,0000.0,0001.28,0003.80,0000.98
2023-12-19 12:21:00,SystemResetWarning,0825.1,5.01,000.00,022.8,021.8,000.0,031.0,024.1,6.3,0000.0,0001.28,0003.81,0000.97
2023-12-19 12:22:00,SystemResetWarning,0825.1,5.00,000.00,022.8,021.8,000.0,031.0,024.1,6.4,0000.0,0001.26,0003.75,0000.96
2023-12-19 12:23:00,SystemResetWarning,0825.0,5.00,000.00,022.8,021.8,000.0,031.0,024.1,6.4,0000.0,0001.25,0003.08,0000.96
2023-12-19 12:24:00,SystemResetWarning,0825.0,5.00,000.00,022.8,021.8,000.0,031.0,024.1,6.4,0000.0,0001.24,0002.68,0000.96
2023-12-19 12:25:00,SystemResetWarning,0825.0,4.98,000.00,022.8,021.8,000.0,031.0,024.1,6.5,0000.0,0001.19,0002.56,0000.95
2023-12-19 12:26:00,SystemResetWarning,0825.1,5.00,000.00,022.8,021.8,000.0,031.0,024.1,6.3,0000.0,0001.18,0002.54,0000.94
2023-12-19 12:27:00,SystemResetWarning,0825.0,5.02,000.00,022.8,021.8,000.0,031.1,024.1,6.2,0000.0,0001.15,0002.14,0000.93
2023-12-19 12:28:00,SystemResetWarning,0824.9,5.00,000.00,022.8,021.9,000.0,031.1,024.1,6.2,0000.0,0001.14,0001.87,0000.93
2023-12-19 12:29:00,SystemResetWarning,0824.9,4.99,000.00,022.8,021.8,000.0,031.1,024.0,6.3,0000.0,0001.13,0001.86,0000.92
2023-12-19 12:30:00,SystemResetWarning,0824.9,4.99,000.00,022.8,021.8,000.0,031.1,024.0,6.4,0000.0,0001.10,0001.78,0000.91
2023-12-19 12:31:00,SystemResetWarning,0824.9,5.00,000.00,022.8,021.8,000.0,031.1,024.0,6.4,0000.0,0001.04,0001.62,0000.90
2023-12-19 12:32:00,SystemResetWarning,0824.9,4.99,000.00,022.8,021.8,000.0,031.1,024.0,6.6,0000.0,0001.00,0001.54,0000.90
2023-12-19 12:33:00,SystemResetWarning,0824.9,5.00,000.00,022.8,021.8,000.0,031.0,024.1,6.5,0000.0,0001.03,0001.67,0000.90
2023-12-19 12:34:00,SystemResetWarning,0824.9,5.00,000.00,022.8,021.8,000.0,031.1,024.0,6.4,0000.0,0001.02,0001.66,0000.89
2023-12-19 12:35:00,SystemResetWarning,0824.9,5.00,000.00,022.8,021.8,000.0,031.1,024.0,6.3,0000.0,0001.02,0001.42,0000.89
2023-12-19 12:36:00,SystemResetWarning,0824.9,5.00,000.00,022.8,021.8,000.0,031.1,024.0,6.5,0000.0,0001.10,0001.51,0000.90
2023-12-19 12:37:00,SystemResetWarning,0824.9,5.00,000.00,022.8,021.8,000.0,031.1,024.0,6.7,0000.0,0001.10,0001.52,0000.89
2023-12-19 12:38:00,SystemResetWarning,0824.9,5.01,000.00,022.8,021.8,000.0,031.1,024.1,6.6,0000.0,0001.10,0001.54,0000.89
2023-12-19 12:39:00,SystemResetWarning,0824.9,5.00,000.00,022.8,021.8,000.0,031.1,024.1,6.5,0000.0,0001.11,0001.56,0000.89
2023-12-19 12:40:00,SystemResetWarning,0824.9,4.99,000.00,022.8,021.8,000.0,031.0,024.0,6.4,0000.0,0001.14,0001.61,0000.90
2023-12-19 12:41:00,SystemResetWarning,0824.9,4.99,000.00,022.8,021.8,000.0,031.0,024.1,6.4,0000.0,0001.15,0001.70,0000.90
2023-12-19 12:42:00,SystemResetWarning,0824.9,5.00,000.00,022.8,021.8,000.0,031.1,024.1,6.4,0000.0,0001.15,0001.71,0000.90
2023-12-19 12:43:00,SystemResetWarning,0825.0,5.00,000.00,022.8,021.8,000.0,031.1,024.1,6.5,0000.0,0001.16,0001.73,0000.90
2023-12-19 12:44:00,SystemResetWarning,0825.0,5.01,000.00,022.8,021.8,000.0,031.1,024.1,6.6,0000.0,0001.17,0001.72,0000.90
2023-12-19 12:45:00,SystemResetWarning,0825.0,5.01,000.00,022.8,021.8,000.0,031.0,024.1,6.6,0000.0,0001.19,0001.76,0000.92
2023-12-19 12:46:00,SystemResetWarning,0825.0,5.01,000.00,022.8,021.8,000.0,031.0,024.1,6.6,0000.0,0001.21,0001.81,0000.93
2023-12-19 12:47:00,SystemResetWarning,0825.1,5.00,000.00,022.8,021.8,000.0,031.0,024.1,6.4,0000.0,0001.16,0001.71,0000.93
2023-12-19 12:48:00,SystemResetWarning,0825.1,5.00,000.00,022.8,021.8,000.0,031.0,024.1,6.4,0000.0,0001.16,0001.71,0000.93
2023-12-19 12:49:00,SystemResetWarning,0825.0,4.99,000.00,022.8,021.8,000.0,031.1,024.0,6.3,0000.0,0001.16,0001.73,0000.94
2023-12-19 12:50:00,SystemResetWarning,0825.1,5.00,000.00,022.8,021.8,000.0,031.0,024.0,6.4,0000.0,0001.17,0001.73,0000.95
2023-12-19 12:51:00,SystemResetWarning,0825.1,4.99,000.00,022.8,021.8,000.0,031.0,024.0,6.6,0000.0,0001.13,0001.65,0000.94
2023-12-19 12:52:00,SystemResetWarning,0825.2,5.00,000.00,022.8,021.8,000.0,031.0,024.1,6.5,0000.0,0001.12,0001.60,0000.94
2023-12-19 12:53:00,SystemResetWarning,0825.1,5.01,000.00,022.8,021.8,000.0,031.0,024.1,6.6,0000.0,0001.14,0001.76,0000.96
2023-12-19 12:54:00,SystemResetWarning,0825.2,5.01,000.00,022.8,021.8,000.0,031.0,024.1,6.6,0000.0,0001.15,0001.78,0000.97
2023-12-19 12:55:00,SystemResetWarning,0825.1,5.01,000.00,022.8,021.8,000.0,031.0,024.1,6.4,0000.0,0001.17,0001.78,0000.99
2023-12-19 12:56:00,SystemResetWarning,0825.2,5.00,000.00,022.8,021.8,000.0,031.1,024.1,6.5,0000.0,0001.16,0001.83,0000.99
2023-12-19 12:57:00,SystemResetWarning,0825.2,5.01,000.00,022.8,021.8,000.0,031.1,024.1,6.5,0000.0,0001.15,0001.89,0000.98
2023-12-19 12:58:00,SystemResetWarning,0825.2,5.00,000.00,022.8,021.9,000.0,031.1,024.1,6.5,0000.0,0001.14,0002.18,0000.99
2023-12-19 12:59:00,SystemResetWarning,0825.2,5.00,000.00,022.8,021.9,000.0,031.1,024.1,6.4,0000.0,0001.18,0002.26,0000.99
